Showing default

YAOGAN-32 A, 43642

Orbit data source: Space-Track

YAOGAN-32 A, 43642 is a payload satellite owned by PLA SSF (CN) in SSO that was launched on Tue, 09 Oct 2018 UTC via a CHANG ZHENG 2C/YZ-1S launch vehicle from the Jiuquan Satellite Launch Center, China (JSC). Payload-class satellites include a variety of spacecraft equipped with specific instruments for various scientific and technological missions. These include communications satellites like Starlink; space stations such as the ISS; scientific satellites like the Hubble; Earth observation satellites from companies like Planet Labs, Umbra, and HawkEye 360; GPS; miniature CubeSats for education and research; and military/defense satellites.

Loading next visibility...
Identifier
43642, 2018-077A
Orbit
SSO
Country
Flag of CNCN / PRC
Related business
Manufacturer
SECM?
Mission
Operational Defense Sigint
Bus & Motor
Unknown
Mass
~500 kg wet, ~500 kg dry
Launch date (UTC)
2018-10-09 (7 years ago)
Launch vehicle
CHANG ZHENG 2C/YZ-1S
Launch site
Jiuquan Satellite Launch Center, China (JSC)
Object type
Payload
Rocket body
Debris
Shape & HBR
Box + 2 Pan, 0.5 m
Radar Cross Section
0.446 m², Large (>1 m²)

Expand to show TLE details & history
Last TLE update: 5 hours ago

TLE from 5 hours ago
0 YAOGAN-32 A
1 43642U 18077A   25243.33454063  .00001141  00000-0  23307-3 0  9991
2 43642  97.9371 274.2157 0001500  85.4962 274.6411 14.62680731367464
Epoch: 2025-08-31T08:01Z
TLE epoch observation values (Epoch: 2025-08-31T08:01:44.31Z)
Latitude
-0.00009°
Longitude
174.02512°
Altitude
687.443 km
Speed
7.513 km/s
True Right ascension
18h 16m 51s
True Declination
0° 00' 00"
Sunlit
Object was in daylight at epoch
Visualization orbit readout
Latitude
Unknown
Longitude
Unknown
Altitude
Unknown
Speed
Unknown
Apparent Right ascension
Unknown
Apparent Declination
Unknown
Sunlit
N/A
Visualization observer readout
Local Sidereal Time
04:43:24
Azimuth
Unknown
Elevation
Unknown
Doppler factor
Unknown
Orbital elements
Apogee altitude
682.656 km
Perigee altitude
680.538 km
Semi-major axis
7,059.734 km
Eccentricity
0.00015
Inclination
97.9371°
RAAN
274.2157°
Arg. of periapsis
85.4962°
True anomaly
274.62397°
Mean anomaly
274.6411°
Eccentric anomaly
274.63253°
Mean motion
3.65899 °/min
Orbital period
98.39 mins
BSTAR
0.00023307
Loading maneuver chart data...
Computing Atmospheric mass density...
Loading historical data...
Loading historical data...
Loading historical data...
Loading historical data...
Loading historical data...
Loading historical data...
Loading historical data...
Other satellites on launch #77 in the year 2018 (2018-10-09 UTC)

Documentation

Showing up to 5 results
|